F4GCF Weather Reports


time (UTC)temp
C
wind
direction
speed
KPH
gust
KPH
rain 1hr
cm
rain 24hr
cm
rain mn
cm
humidity
%
barometer
mb
20260510043351 13 93 1.6 1.6 0.00 0.00 0.00 62 1013.0
20260510042851 13 126 1.6 3.2 0.00 0.00 0.00 62 1013.0
20260510042350 13 112 3.2 4.8 0.00 0.00 0.00 62 1013.0
20260510041850 13 115 1.6 3.2 0.00 0.00 0.00 62 1013.0
20260510041350 13 135 1.6 3.2 0.00 0.00 0.00 62 1013.0
20260510040852 13 124 1.6 3.2 0.00 0.00 0.00 62 1013.0
20260510040351 13 107 1.6 3.2 0.00 0.00 0.00 62 1013.0
20260510035851 13 112 3.2 4.8 0.00 0.00 0.00 62 1013.0
20260510035351 13 127 3.2 8.0 0.00 0.00 0.00 62 1013.0
20260510034851 13 109 3.2 4.8 0.00 0.00 0.00 62 1013.0
20260510034350 13 105 1.6 3.2 0.00 0.00 0.00 62 1013.0
20260510033850 13 112 1.6 8.0 0.00 0.00 0.00 62 1013.0
20260510033350 13 101 1.6 3.2 0.00 0.00 0.00 62 1013.0
20260510032850 13 112 3.2 4.8 0.00 0.00 0.00 62 1013.0
20260510032352 13 119 3.2 8.0 0.00 0.00 0.00 62 1013.0
20260510031851 13 126 3.2 3.2 0.00 0.00 0.00 62 1013.0
20260510031351 13 102 4.8 4.8 0.00 0.00 0.00 62 1013.0
20260510030851 13 119 3.2 3.2 0.00 0.00 0.00 62 1013.0
20260510030351 13 151 4.8 8.0 0.00 0.00 0.00 62 1013.0
20260510025851 13 158 3.2 4.8 0.00 0.00 0.00 62 1013.0
20260510025350 13 135 3.2 3.2 0.00 0.00 0.00 62 1013.0
20260510024850 13 144 3.2 4.8 0.00 0.00 0.00 62 1013.0
20260510024350 13 112 3.2 4.8 0.00 0.00 0.00 62 1013.0
20260510023850 13 124 3.2 8.0 0.00 0.00 0.00 62 1013.0
20260510023350 13 132 3.2 4.8 0.00 0.00 0.00 62 1013.0
20260510022850 13 146 3.2 3.2 0.00 0.00 0.00 62 1013.0
20260510022350 13 139 3.2 8.0 0.00 0.00 0.00 62 1013.0
20260510021850 13 118 1.6 4.8 0.00 0.00 0.00 62 1013.0
20260510021352 13 151 3.2 4.8 0.00 0.00 0.00 62 1012.0
20260510020851 13 148 3.2 8.0 0.00 0.00 0.00 62 1012.0
20260510020351 13 158 3.2 3.2 0.00 0.00 0.00 62 1012.0
20260510015851 13 169 4.8 4.8 0.00 0.00 0.00 62 1013.0
20260510015351 13 165 4.8 8.0 0.00 0.00 0.00 62 1013.0
20260510014851 13 164 3.2 4.8 0.00 0.00 0.00 62 1013.0
20260510014351 13 173 1.6 3.2 0.00 0.00 0.00 62 1013.0
20260510013851 13 168 3.2 3.2 0.00 0.00 0.00 62 1013.0
20260510013351 13 181 3.2 8.0 0.00 0.00 0.00 62 1013.0
20260510012850 13 158 3.2 4.8 0.00 0.00 0.00 62 1013.0
20260510012350 13 155 3.2 4.8 0.00 0.00 0.00 62 1013.0
20260510011850 13 130 3.2 4.8 0.00 0.00 0.00 62 1013.0
20260510011350 13 128 1.6 3.2 0.00 0.00 0.00 62 1013.0
20260510010850 13 104 1.6 3.2 0.00 0.00 0.00 62 1013.0
20260510010350 13 124 3.2 4.8 0.00 0.00 0.00 62 1013.0
20260510005851 13 124 1.6 3.2 0.00 0.00 0.00 62 1013.0
20260510005351 13 112 1.6 3.2 0.00 0.00 0.00 62 1013.0
20260510004851 13 119 3.2 4.8 0.00 0.00 0.00 62 1013.0
20260510004351 13 97 3.2 4.8 0.00 0.00 0.00 61 1012.0
20260510003851 13 104 1.6 3.2 0.00 0.00 0.00 61 1012.0
20260510003350 13 112 1.6 4.8 0.00 0.00 0.00 61 1012.0
20260510002850 13 158 0.0 1.6 0.00 0.00 0.00 61 1012.0
20260510002350 13 137 1.6 3.2 0.00 0.00 0.00 61 1012.0
20260510001850 13 141 1.6 3.2 0.00 0.00 0.00 61 1012.0
20260510001350 13 115 1.6 3.2 0.00 0.00 0.00 61 1013.0
20260510000850 13 163 3.2 3.2 0.00 0.00 0.00 61 1013.0
20260510000350 13 150 1.6 3.2 0.00 0.00 0.00 61 1013.0
20260509235852 13 119 1.6 3.2 0.00 0.00 0.00 61 1013.0
20260509235351 13 119 3.2 3.2 0.00 0.00 0.00 61 1013.0
20260509234851 13 112 0.0 1.6 0.00 0.00 0.00 61 1013.0
20260509234351 13 135 1.6 3.2 0.00 0.00 0.00 61 1012.0
20260509233851 13 112 3.2 3.2 0.00 0.00 0.00 61 1012.0
20260509233351 14 112 3.2 4.8 0.00 0.00 0.00 61 1012.0
20260509232851 14 95 3.2 4.8 0.00 0.00 0.00 61 1013.0
20260509232351 14 112 3.2 3.2 0.00 0.00 0.00 61 1013.0
20260509231851 14 112 1.6 3.2 0.00 0.00 0.00 61 1013.0
20260509231350 14 112 1.6 3.2 0.00 0.00 0.00 61 1013.0
20260509230850 14 112 1.6 1.6 0.00 0.00 0.00 61 1013.0
20260509230352 14 112 1.6 1.6 0.00 0.00 0.00 61 1013.0
20260509225851 14 111 1.6 3.2 0.00 0.00 0.00 61 1013.0
20260509225351 14 83 1.6 3.2 0.00 0.00 0.00 61 1013.0
20260509224851 14 69 3.2 1.6 0.00 0.00 0.00 61 1013.0
20260509224351 14 85 1.6 3.2 0.00 0.00 0.00 61 1013.0
20260509223851 14 45 1.6 1.6 0.00 0.00 0.00 61 1013.0
20260509223351 14 45 0.0 1.6 0.00 0.00 0.00 61 1013.0
20260509222850 14 45 0.0 1.6 0.00 0.00 0.00 61 1013.0
20260509222350 14 45 1.6 1.6 0.00 0.00 0.00 61 1013.0
20260509221850 14 45 1.6 3.2 0.00 0.00 0.00 61 1013.0
20260509221350 14 45 1.6 1.6 0.00 0.00 0.00 61 1013.0
20260509220850 14 45 0.0 1.6 0.00 0.00 0.00 61 1013.0
20260509220350 14 45 0.0 1.6 0.00 0.00 0.00 61 1013.0
20260509215852 14 45 0.0 1.6 0.00 0.00 0.00 61 1013.0
20260509215351 14 45 0.0 1.6 0.00 0.00 0.00 61 1013.0
20260509214851 14 45 1.6 1.6 0.00 0.00 0.00 61 1013.0
20260509214351 14 45 0.0 0.0 0.00 0.00 0.00 61 1013.0
20260509213851 15 45 0.0 1.6 0.00 0.00 0.00 61 1013.0
20260509213350 15 45 0.0 0.0 0.00 0.00 0.00 61 1013.0
20260509212850 15 45 0.0 1.6 0.00 0.00 0.00 61 1013.0
20260509212350 15 45 0.0 1.6 0.00 0.00 0.00 60 1013.0
20260509211850 15 45 0.0 0.0 0.00 0.00 0.00 60 1013.0
20260509211350 15 45 0.0 0.0 0.00 0.00 0.00 60 1013.0
20260509210852 15 45 0.0 0.0 0.00 0.00 0.00 60 1013.0
20260509210352 15 45 0.0 0.0 0.00 0.00 0.00 60 1013.0
20260509205852 15 45 0.0 0.0 0.00 0.00 0.00 60 1012.0
20260509205351 15 45 0.0 0.0 0.00 0.00 0.00 60 1012.0
20260509204851 15 45 0.0 0.0 0.00 0.00 0.00 60 1012.0
20260509204351 15 45 0.0 0.0 0.00 0.00 0.00 60 1013.0
20260509203851 15 45 0.0 0.0 0.00 0.00 0.00 60 1013.0
20260509203350 16 45 0.0 1.6 0.00 0.00 0.00 60 1013.0
20260509202850 16 45 0.0 1.6 0.00 0.00 0.00 60 1013.0
20260509202351 16 112 0.0 0.0 0.00 0.00 0.00 60 1013.0
20260509201850 16 45 0.0 1.6 0.00 0.00 0.00 60 1013.0
20260509201352 16 113 1.6 4.8 0.00 0.00 0.00 60 1012.0
20260509200851 16 112 1.6 1.6 0.00 0.00 0.00 60 1012.0
20260509200351 16 90 1.6 1.6 0.00 0.00 0.00 60 1012.0
20260509195851 16 91 3.2 4.8 0.00 0.00 0.00 60 1012.0
20260509195351 16 112 1.6 1.6 0.00 0.00 0.00 60 1012.0
20260509194850 16 112 0.0 1.6 0.00 0.00 0.00 60 1012.0
20260509194350 16 96 1.6 3.2 0.00 0.00 0.00 60 1012.0
20260509193851 16 90 1.6 1.6 0.00 0.00 0.00 60 1012.0
20260509193350 17 68 1.6 0.0 0.00 0.00 0.00 60 1012.0
20260509192852 17 90 0.0 1.6 0.00 0.00 0.00 60 1011.0
20260509192352 17 112 3.2 3.2 0.00 0.00 0.00 60 1011.0
20260509191851 17 112 1.6 3.2 0.00 0.00 0.00 60 1011.0
20260509191351 17 74 3.2 3.2 0.00 0.00 0.00 60 1011.0
20260509190851 17 101 3.2 8.0 0.00 0.00 0.00 60 1011.0
20260509190351 17 98 3.2 8.0 0.00 0.00 0.00 60 1011.0
20260509185850 17 135 3.2 11.3 0.00 0.00 0.00 60 1011.0
20260509185352 17 91 3.2 8.0 0.00 0.00 0.00 60 1011.0
20260509184852 17 104 4.8 8.0 0.00 0.00 0.00 60 1011.0
20260509184351 18 91 4.8 8.0 0.00 0.00 0.00 60 1011.0
20260509183851 18 106 4.8 11.3 0.00 0.00 0.00 60 1011.0
20260509183351 18 127 8.0 9.7 0.00 0.00 0.00 60 1011.0
20260509182852 18 117 3.2 3.2 0.00 0.00 0.00 60 1010.0
20260509182352 18 83 4.8 4.8 0.00 0.00 0.00 60 1010.0
20260509181851 18 87 4.8 4.8 0.00 0.00 0.00 60 1010.0
20260509181351 18 120 3.2 9.7 0.00 0.00 0.00 60 1010.0
20260509180851 18 118 4.8 8.0 0.00 0.00 0.00 60 1010.0
20260509180351 18 116 9.7 9.7 0.00 0.00 0.00 60 1010.0
20260509175851 19 112 8.0 8.0 0.00 0.00 0.00 60 1009.0
20260509175351 19 118 8.0 11.3 0.00 0.00 0.00 60 1009.0
20260509174850 19 111 4.8 12.9 0.00 0.00 0.00 60 1009.0
20260509174352 19 118 4.8 9.7 0.00 0.00 0.00 60 1009.0
20260509173851 19 99 8.0 9.7 0.00 0.00 0.00 60 1009.0
20260509173351 20 95 4.8 9.7 0.00 0.00 0.00 60 1009.0
20260509172851 20 104 9.7 12.9 0.00 0.00 0.00 59 1009.0
20260509172351 20 135 8.0 9.7 0.00 0.00 0.00 59 1009.0
20260509171850 20 115 8.0 11.3 0.00 0.00 0.00 60 1009.0
20260509171350 20 117 4.8 9.7 0.00 0.00 0.00 60 1009.0
20260509170852 20 127 8.0 9.7 0.00 0.00 0.00 60 1009.0
20260509170352 20 110 4.8 12.9 0.00 0.00 0.00 60 1009.0
20260509165852 20 104 8.0 9.7 0.00 0.00 0.00 60 1009.0
20260509165351 20 112 8.0 11.3 0.00 0.00 0.00 60 1009.0
20260509164851 20 145 8.0 14.5 0.00 0.00 0.00 60 1009.0
20260509164351 21 116 12.9 12.9 0.00 0.00 0.00 60 1009.0
20260509163852 21 138 12.9 14.5 0.00 0.00 0.00 60 1009.0
20260509163352 21 77 8.0 11.3 0.00 0.00 0.00 60 1009.0
20260509162851 21 93 8.0 19.3 0.00 0.00 0.00 60 1009.0
20260509162351 21 124 9.7 9.7 0.00 0.00 0.00 60 1009.0
20260509161851 21 112 8.0 19.3 0.00 0.00 0.00 60 1009.0
20260509161351 21 112 8.0 8.0 0.00 0.00 0.00 60 1009.0
20260509160851 21 68 8.0 12.9 0.00 0.00 0.00 60 1009.0
20260509160350 21 112 9.7 16.1 0.00 0.00 0.00 60 1009.0
20260509155850 21 106 8.0 14.5 0.00 0.00 0.00 60 1009.0
20260509155350 21 135 9.7 11.3 0.00 0.00 0.00 61 1009.0
20260509154852 21 118 8.0 11.3 0.00 0.00 0.00 61 1009.0
20260509154352 21 98 3.2 4.8 0.00 0.00 0.00 61 1009.0
20260509153852 21 127 4.8 12.9 0.00 0.00 0.00 61 1009.0
20260509153351 22 72 8.0 14.5 0.00 0.00 0.00 60 1009.0
20260509152851 22 112 11.3 14.5 0.00 0.00 0.00 61 1009.0
20260509152351 22 105 8.0 14.5 0.00 0.00 0.00 61 1009.0
20260509151853 22 104 8.0 9.7 0.00 0.00 0.00 61 1009.0
20260509151351 22 118 4.8 16.1 0.00 0.00 0.00 61 1009.0
20260509150851 22 117 8.0 9.7 0.00 0.00 0.00 61 1009.0
20260509150351 22 87 3.2 12.9 0.00 0.00 0.00 61 1009.0
20260509145850 22 107 9.7 8.0 0.00 0.00 0.00 61 1009.0
20260509145350 22 89 4.8 12.9 0.00 0.00 0.00 61 1009.0
20260509144850 22 116 11.3 12.9 0.00 0.00 0.00 61 1009.0
20260509144350 22 98 4.8 4.8 0.00 0.00 0.00 61 1008.0
20260509143850 22 103 4.8 12.9 0.00 0.00 0.00 61 1008.0
20260509143352 22 133 4.8 8.0 0.00 0.00 0.00 61 1008.0
20260509142852 22 102 9.7 12.9 0.00 0.00 0.00 62 1009.0
20260509142351 22 112 11.3 9.7 0.00 0.00 0.00 62 1009.0
20260509141852 22 122 4.8 8.0 0.00 0.00 0.00 62 1009.0
20260509141351 22 113 8.0 12.9 0.00 0.00 0.00 62 1009.0
20260509140851 22 140 4.8 8.0 0.00 0.00 0.00 62 1009.0
20260509140351 22 69 8.0 12.9 0.00 0.00 0.00 63 1009.0
20260509135851 22 120 8.0 9.7 0.00 0.00 0.00 63 1009.0
20260509135351 22 112 8.0 9.7 0.00 0.00 0.00 63 1009.0
20260509134851 22 139 11.3 12.9 0.00 0.00 0.00 63 1009.0
20260509134351 22 112 8.0 16.1 0.00 0.00 0.00 62 1009.0
20260509133851 22 99 4.8 8.0 0.00 0.00 0.00 62 1009.0
20260509133351 22 105 9.7 12.9 0.00 0.00 0.00 62 1009.0
20260509132851 22 88 8.0 14.5 0.00 0.00 0.00 63 1009.0
20260509132350 22 92 9.7 9.7 0.00 0.00 0.00 63 1009.0
20260509131850 22 109 9.7 12.9 0.00 0.00 0.00 63 1009.0
20260509131350 22 113 4.8 9.7 0.00 0.00 0.00 63 1010.0
20260509130850 22 120 8.0 11.3 0.00 0.00 0.00 63 1010.0
20260509130350 22 135 11.3 14.5 0.00 0.00 0.00 63 1010.0
20260509125850 22 115 8.0 9.7 0.00 0.00 0.00 63 1010.0
20260509125350 22 99 11.3 8.0 0.00 0.00 0.00 63 1010.0
20260509124850 22 108 9.7 12.9 0.00 0.00 0.00 64 1010.0
20260509124352 22 150 9.7 11.3 0.00 0.00 0.00 64 1010.0
20260509123851 22 127 8.0 14.5 0.00 0.00 0.00 64 1010.0
20260509123351 22 119 8.0 8.0 0.00 0.00 0.00 63 1010.0
20260509122851 22 119 9.7 9.7 0.00 0.00 0.00 64 1010.0
20260509122351 22 28 4.8 4.8 0.00 0.00 0.00 64 1010.0
20260509121850 22 117 8.0 9.7 0.00 0.00 0.00 64 1010.0
20260509121350 22 71 4.8 9.7 0.00 0.00 0.00 64 1010.0
20260509120850 22 140 8.0 11.3 0.00 0.00 0.00 64 1010.0
20260509120350 22 137 8.0 9.7 0.00 0.00 0.00 64 1010.0
20260509115850 21 132 4.8 3.2 0.00 0.00 0.00 64 1011.0
20260509115350 21 108 9.7 12.9 0.00 0.00 0.00 64 1011.0
20260509114850 21 119 4.8 9.7 0.00 0.00 0.00 64 1011.0
20260509114351 21 112 8.0 9.7 0.00 0.00 0.00 64 1011.0
20260509113851 21 106 8.0 9.7 0.00 0.00 0.00 64 1011.0
20260509113351 21 109 4.8 9.7 0.00 0.00 0.00 65 1011.0
20260509112851 21 111 4.8 9.7 0.00 0.00 0.00 65 1010.0
20260509112351 21 102 4.8 8.0 0.00 0.00 0.00 65 1010.0
20260509111851 21 143 9.7 11.3 0.00 0.00 0.00 65 1010.0
20260509111351 21 127 8.0 12.9 0.00 0.00 0.00 65 1011.0
20260509110851 21 134 8.0 12.9 0.00 0.00 0.00 65 1011.0
20260509110350 20 152 12.9 12.9 0.00 0.00 0.00 65 1011.0
20260509105850 20 135 9.7 11.3 0.00 0.00 0.00 65 1011.0
20260509105350 20 115 8.0 12.9 0.00 0.00 0.00 65 1011.0
20260509104850 20 109 9.7 14.5 0.00 0.00 0.00 65 1011.0
20260509104350 20 94 11.3 16.1 0.00 0.00 0.00 65 1011.0
20260509103850 20 140 9.7 11.3 0.00 0.00 0.00 65 1011.0
20260509103350 20 104 9.7 14.5 0.00 0.00 0.00 65 1011.0
20260509102852 20 161 11.3 14.5 0.00 0.00 0.00 65 1011.0
20260509102351 20 125 8.0 11.3 0.00 0.00 0.00 65 1011.0
20260509101851 20 142 11.3 12.9 0.00 0.00 0.00 65 1011.0
20260509101351 20 128 12.9 12.9 0.00 0.00 0.00 65 1010.0
20260509100850 20 134 12.9 19.3 0.00 0.00 0.00 65 1010.0
20260509100350 20 155 9.7 12.9 0.00 0.00 0.00 65 1010.0
20260509095850 20 139 11.3 12.9 0.00 0.00 0.00 66 1011.0
20260509095350 19 160 11.3 14.5 0.00 0.00 0.00 65 1011.0
20260509094850 19 132 9.7 14.5 0.00 0.00 0.00 65 1011.0
20260509094352 19 148 9.7 12.9 0.00 0.00 0.00 65 1011.0
20260509093851 19 60 4.8 3.2 0.00 0.00 0.00 65 1011.0
20260509093351 19 131 9.7 16.1 0.00 0.00 0.00 66 1011.0
20260509092851 18 143 11.3 14.5 0.00 0.00 0.00 66 1011.0
20260509092351 18 142 11.3 14.5 0.00 0.00 0.00 66 1011.0
20260509091850 18 123 8.0 12.9 0.00 0.00 0.00 66 1011.0
20260509091350 18 120 9.7 9.7 0.00 0.00 0.00 66 1011.0
20260509090850 18 112 8.0 12.9 0.00 0.00 0.00 66 1011.0
20260509090350 18 140 9.7 11.3 0.00 0.00 0.00 66 1011.0
20260509085850 18 125 11.3 14.5 0.00 0.00 0.00 66 1012.0
20260509085351 17 109 11.3 14.5 0.00 0.00 0.00 66 1012.0
20260509084851 17 117 9.7 9.7 0.00 0.00 0.00 66 1012.0
20260509084351 17 135 11.3 12.9 0.00 0.00 0.00 66 1012.0
20260509083851 17 129 9.7 11.3 0.00 0.00 0.00 66 1012.0
20260509083351 17 158 12.9 16.1 0.00 0.00 0.00 66 1012.0
20260509082850 17 147 12.9 14.5 0.00 0.00 0.00 66 1013.0
20260509082350 17 142 11.3 12.9 0.00 0.00 0.00 66 1013.0
20260509081850 17 161 11.3 20.9 0.00 0.00 0.00 66 1013.0
20260509081352 16 117 9.7 14.5 0.00 0.00 0.00 66 1013.0
20260509080851 16 127 11.3 14.5 0.00 0.00 0.00 66 1013.0
20260509080351 16 131 11.3 12.9 0.00 0.00 0.00 66 1013.0
20260509075851 16 139 12.9 14.5 0.00 0.00 0.00 66 1013.0
20260509075726 16 141 11.3 20.9 0.00 0.00 0.00 66 1013.0
20260509075457 16 112 8.0 9.7 0.00 0.00 0.00 66 1013.0
20260509074956 16 150 11.3 19.3 0.00 0.00 0.00 66 1013.0
20260509074456 16 147 8.0 9.7 0.00 0.00 0.00 66 1013.0
20260509073956 16 95 11.3 9.7 0.00 0.00 0.00 66 1013.0
20260509073456 15 126 9.7 12.9 0.00 0.00 0.00 67 1013.0
20260509072956 15 146 9.7 12.9 0.00 0.00 0.00 67 1013.0
20260509072455 15 101 8.0 12.9 0.00 0.00 0.00 67 1013.0
20260509071955 15 112 4.8 9.7 0.00 0.00 0.00 67 1013.0
20260509071455 15 127 9.7 14.5 0.00 0.00 0.00 67 1015.0
20260509070956 15 119 4.8 9.7 0.00 0.00 0.00 67 1015.0
20260509070456 14 112 4.8 9.7 0.00 0.00 0.00 67 1015.0
20260509065956 14 136 8.0 8.0 0.00 0.00 0.00 67 1015.0
20260509065456 14 129 8.0 12.9 0.00 0.00 0.00 67 1015.0
20260509064956 13 117 8.0 9.7 0.00 0.00 0.00 66 1015.0
20260509064455 13 128 4.8 8.0 0.00 0.00 0.00 67 1015.0
20260509063955 13 123 4.8 8.0 0.00 0.00 0.00 66 1015.0
20260509063455 13 112 8.0 8.0 0.00 0.00 0.00 66 1015.0
20260509062957 13 135 1.6 3.2 0.00 0.00 0.00 66 1015.0
20260509062456 13 94 4.8 9.7 0.00 0.00 0.00 66 1015.0
20260509061956 13 101 4.8 8.0 0.00 0.00 0.00 65 1015.0
20260509061456 13 112 4.8 4.8 0.00 0.00 0.00 65 1015.0
20260509060956 13 107 3.2 4.8 0.00 0.00 0.00 65 1015.0
20260509060455 12 112 3.2 4.8 0.00 0.00 0.00 65 1015.0
20260509055955 12 104 3.2 4.8 0.00 0.00 0.00 65 1016.0
20260509055455 12 112 3.2 4.8 0.00 0.00 0.00 65 1016.0
20260509054956 12 109 1.6 4.8 0.00 0.00 0.00 65 1016.0
20260509054456 12 90 3.2 4.8 0.00 0.00 0.00 65 1016.0
20260509053956 12 111 1.6 3.2 0.00 0.00 0.00 65 1016.0
20260509053456 12 101 3.2 3.2 0.00 0.00 0.00 65 1016.0
20260509052956 12 113 1.6 3.2 0.00 0.00 0.00 65 1015.0
20260509052456 12 119 3.2 8.0 0.00 0.00 0.00 65 1015.0
20260509051955 12 104 3.2 8.0 0.00 0.00 0.00 65 1015.0
20260509051455 12 90 3.2 3.2 0.00 0.00 0.00 64 1016.0
20260509050955 12 112 3.2 4.8 0.00 0.00 0.00 64 1016.0
20260509050455 12 108 1.6 4.8 0.00 0.00 0.00 64 1016.0
20260509045955 12 97 3.2 3.2 0.00 0.00 0.00 64 1016.0
20260509045455 12 112 1.6 1.6 0.00 0.00 0.00 64 1016.0
20260509044956 12 96 3.2 3.2 0.00 0.00 0.00 64 1016.0
20260509044456 12 112 3.2 3.2 0.00 0.00 0.00 64 1016.0
20260509043956 12 118 1.6 3.2 0.00 0.00 0.00 64 1016.0